Location: Kaltenbach
(49.2000°N, 7.7500°E)
Time: 12:11:39
(UTC+00:00)

Cosmos 1000 Rocket - Pass Details

Date: 24 January 2020
Orbit: 954 x 992 km, 82.9° (Epoch: 16 February)

Event Time Altitude Azimuth Distance (km) Brightness Sun altitude
Rises 18:22:50 0° 352° (N) 3,655 7.5 -21.2°
Reaches altitude 10° 18:25:23 10° 355° (N) 2,709 6.8 -21.6°
Maximum altitude 18:31:32 65° 78° (ENE) 1,059 4.4 -22.6°
Drops below altitude 10° 18:37:43 10° 160° (SSE) 2,716 6.7 -23.6°
Sets 18:40:16 0° 163° (SSE) 3,665 7.4 -24.0°
